User: anonymous   Login
Location: Coffee Creek Observatory
(38.8077°N, 94.7179°W)
Time: 10:11:19
(UTC-06:00)
Language:

Lacrosse 4 Rocket - Orbit

View from above orbital plane
View from above orbital plane
View from above satellite
View from above satellite

Ground track
Ground track

The orbit data is extracted from the following two-line orbital elements,

1 26474U 00047B   15027.56011476  .00001265  00000-0  12583-3 0  8556
2 26474 067.9955 087.7551 0060736 205.3250 154.4912 14.93879266785100
Epoch (UTC): 27 January 2015 13:26:33
Eccentricity: 0.0060736
inclination: 67.9955°
perigee height: 543 km
apogee height: 628 km
right ascension of ascending node: 87.7551°
argument of perigee: 205.3250°
revolutions per day: 14.93879266
mean anomaly at epoch: 154.4912°
orbit number at epoch: 78510

The dashed part of the orbit path shows where the satellite is in the earth's shadow,  

DLR